W4DHW-4 Weather Reports


time (UTC)temp
F
wind
direction
speed
knots
gust
knots
rain 1hr
in
rain 24hr
in
rain mn
in
humidity
%
barometer
mb
20260508033728 55 290 3.5 5.2 0.00 0.02 0.02 59 1014.0
20260508033227 55 298 4.3 6.1 0.00 0.02 0.02 60 1013.8
20260508032724 55 272 2.6 2.6 0.00 0.02 0.02 59 1014.1
20260508032221 55 321 2.6 5.2 0.00 0.02 0.02 61 1014.1
20260508031718 54 266 2.6 4.3 0.00 0.02 0.02 61 1014.0
20260508031214 53 300 6.1 6.1 0.00 0.02 0.02 65 1013.8
20260508030710 50 297 0.9 1.7 0.00 0.02 0.02 81 1013.9
20260508030203 48 269 0.0 0.9 0.00 0.02 0.02 87 1013.7
20260508025659 48 277 0.0 0.0 0.00 0.02 0.02 93 1013.8
20260508025157 49 273 0.0 0.9 0.00 0.02 0.02 94 1013.6
20260508024652 50 269 0.0 0.0 0.00 0.02 0.02 94 1013.5
20260508024150 50 273 0.0 0.0 0.00 0.02 0.02 94 1013.7
20260508023645 50 272 0.0 0.0 0.00 0.02 0.02 94 1013.2
20260508023144 50 268 0.0 0.0 0.00 0.02 0.02 94 1013.3
20260508022639 50 267 0.9 0.9 0.00 0.02 0.02 94 1013.5
20260508022136 51 270 0.0 0.0 0.00 0.02 0.02 94 1013.1
20260508021632 51 288 0.0 0.0 0.00 0.02 0.02 93 1012.9
20260508021127 51 281 0.0 0.0 0.00 0.02 0.02 93 1013.1
20260508020626 51 269 0.0 0.0 0.00 0.02 0.02 93 1013.2
20260508020123 52 258 0.9 0.9 0.00 0.02 0.02 93 1013.0
20260508015621 52 301 0.9 0.9 0.00 0.02 0.02 92 1013.0
20260508015118 52 272 0.0 0.0 0.00 0.02 0.02 92 1012.9
20260508014614 52 322 0.9 0.9 0.00 0.02 0.02 92 1012.9
20260508014110 52 269 0.0 0.9 0.00 0.02 0.02 92 1012.7
20260508013606 53 294 0.9 0.9 0.00 0.02 0.02 92 1012.4
20260508013103 53 300 0.9 1.7 0.00 0.02 0.02 92 1012.5
20260508012601 53 277 0.0 0.0 0.00 0.02 0.02 91 1012.6
20260508012058 53 337 0.9 0.9 0.00 0.02 0.02 92 1012.3
20260508011556 53 291 0.9 0.9 0.00 0.02 0.02 91 1012.3
20260508011053 53 333 1.7 1.7 0.00 0.02 0.02 91 1012.3
20260508010550 54 310 0.9 1.7 0.00 0.02 0.02 90 1012.0
20260508010048 54 299 0.9 1.7 0.00 0.02 0.02 90 1011.9
20260508005544 54 297 0.9 0.9 0.00 0.02 0.02 90 1011.9
20260508005041 54 282 0.0 0.0 0.00 0.02 0.02 89 1011.6
20260508004536 55 277 0.9 0.9 0.00 0.02 0.02 89 1011.5
20260508004033 55 238 0.0 0.9 0.00 0.02 0.02 88 1011.6
20260508003530 55 51 1.7 1.7 0.00 0.02 0.02 88 1011.3
20260508003028 56 269 0.0 0.0 0.00 0.02 0.02 87 1011.4
20260508002523 56 328 0.9 0.9 0.00 0.02 0.02 86 1011.5
20260508002021 56 218 0.0 0.0 0.00 0.02 0.02 86 1011.6
20260508001517 56 265 0.0 0.0 0.00 0.02 0.02 85 1011.3
20260508001013 57 239 0.9 0.9 0.00 0.02 0.02 85 1011.5
20260508000509 57 332 1.7 1.7 0.00 0.02 0.02 85 1011.4
20260508000007 57 220 0.0 0.9 0.00 0.02 0.02 84 1011.2
20260507235503 57 104 2.6 2.6 0.00 0.02 0.02 84 1011.1
20260507235001 58 350 2.6 2.6 0.00 0.02 0.02 84 1011.2
20260507234457 58 243 0.9 0.9 0.00 0.02 0.02 83 1010.6
20260507233953 58 244 0.0 0.0 0.00 0.02 0.02 83 1010.7
20260507233450 58 347 0.9 1.7 0.00 0.02 0.02 83 1010.7
20260507232949 58 71 0.9 1.7 0.00 0.02 0.02 82 1010.5
20260507232444 59 50 1.7 1.7 0.00 0.02 0.02 81 1010.5
20260507231942 60 3 0.9 1.7 0.00 0.02 0.02 81 1010.4
20260507231438 59 110 1.7 1.7 0.00 0.02 0.02 81 1010.3
20260507230935 59 79 3.5 5.2 0.00 0.02 0.02 81 1010.2
20260507230433 59 43 2.6 4.3 0.00 0.02 0.02 81 1010.0
20260507225932 59 81 6.1 6.1 0.00 0.02 0.02 81 1010.1
20260507225428 60 103 2.6 4.3 0.00 0.02 0.02 81 1010.1
20260507224925 60 58 1.7 1.7 0.00 0.02 0.02 80 1010.0
20260507224421 61 71 5.2 6.1 0.00 0.02 0.02 79 1010.2
20260507223917 62 173 7.8 8.7 0.00 0.02 0.02 74 1010.1
20260507223414 62 135 3.5 4.3 0.00 0.02 0.02 77 1010.0
20260507222911 61 222 1.7 1.7 0.00 0.02 0.02 78 1009.7
20260507222408 61 117 4.3 5.2 0.00 0.02 0.02 78 1009.9
20260507221904 61 115 2.6 2.6 0.00 0.02 0.02 78 1009.8
20260507221401 62 155 4.3 5.2 0.00 0.02 0.02 77 1009.7
20260507220856 62 158 3.5 4.3 0.00 0.02 0.02 76 1009.7
20260507220355 62 166 8.7 13.0 0.00 0.02 0.02 76 1009.8
20260507215851 62 163 6.1 7.8 0.00 0.02 0.02 76 1009.6
20260507215348 61 171 7.8 8.7 0.00 0.02 0.02 75 1009.6
20260507214845 61 214 5.2 6.1 0.00 0.02 0.02 75 1009.6
20260507214344 61 183 3.5 4.3 0.00 0.02 0.02 75 1009.8
20260507213844 61 195 5.2 6.1 0.00 0.02 0.02 74 1009.9
20260507213341 62 168 6.1 7.0 0.00 0.02 0.02 74 1009.8
20260507212837 62 252 2.6 4.3 0.00 0.02 0.02 74 1009.8
20260507212333 61 185 4.3 5.2 0.00 0.02 0.02 75 1009.8
20260507211830 61 108 6.1 7.0 0.00 0.02 0.02 74 1009.8
20260507211327 61 177 4.3 5.2 0.00 0.02 0.02 74 1009.6
20260507210824 60 186 2.6 2.6 0.00 0.02 0.02 75 1009.6
20260507210321 60 200 7.0 7.8 0.00 0.02 0.02 75 1009.7
20260507205817 60 289 2.6 4.3 0.00 0.02 0.02 75 1009.6
20260507205314 60 215 6.1 7.8 0.00 0.02 0.02 76 1009.7
20260507204810 60 181 7.8 7.8 0.00 0.02 0.02 77 1009.6
20260507204308 60 202 7.0 8.7 0.00 0.02 0.02 78 1009.5
20260507203806 61 163 5.2 6.1 0.00 0.02 0.02 77 1009.6
20260507203303 61 200 2.6 4.3 0.00 0.02 0.02 77 1009.7
20260507202759 61 260 6.1 7.0 0.00 0.02 0.02 77 1009.9
20260507202255 60 173 3.5 4.3 0.00 0.02 0.02 79 1009.8
20260507201750 60 223 7.8 9.6 0.00 0.02 0.02 79 1010.2
20260507201247 60 211 2.6 4.3 0.00 0.02 0.02 78 1010.1
20260507200743 60 259 2.6 2.6 0.00 0.02 0.02 80 1010.1
20260507200239 59 184 2.6 4.3 0.00 0.02 0.02 80 1010.0
20260507195735 59 236 5.2 7.8 0.00 0.02 0.02 81 1010.2
20260507195233 59 279 10.4 15.6 0.00 0.02 0.02 82 1010.4
20260507194730 59 182 4.3 5.2 0.00 0.02 0.02 82 1010.4
20260507194226 59 255 4.3 5.2 0.00 0.02 0.02 83 1010.3
20260507193723 59 200 3.5 4.3 0.00 0.02 0.02 83 1010.8
20260507193220 59 205 1.7 1.7 0.00 0.02 0.02 84 1010.8
20260507192716 58 244 4.3 5.2 0.00 0.02 0.02 84 1010.6
20260507192213 58 181 2.6 2.6 0.00 0.02 0.02 85 1010.6
20260507191708 58 166 3.5 4.3 0.00 0.02 0.02 86 1010.8
20260507191206 58 233 3.5 4.3 0.00 0.02 0.02 86 1011.1
20260507190703 58 145 3.5 4.3 0.00 0.02 0.02 87 1011.0
20260507190201 58 229 6.1 8.7 0.00 0.02 0.02 86 1011.1
20260507185659 57 237 2.6 2.6 0.00 0.02 0.02 87 1010.9
20260507185156 57 226 5.2 6.1 0.00 0.02 0.02 86 1011.1
20260507184654 57 218 2.6 2.6 0.00 0.02 0.02 86 1011.2
20260507184151 56 211 1.7 1.7 0.00 0.02 0.02 86 1011.2
20260507183647 57 149 1.7 2.6 0.00 0.02 0.02 87 1011.2
20260507183145 57 200 2.6 4.3 0.00 0.02 0.02 86 1011.2
20260507182642 56 219 0.0 0.9 0.00 0.02 0.02 86 1011.3
20260507182137 56 237 1.7 1.7 0.00 0.02 0.02 86 1011.4
20260507181634 56 202 3.5 4.3 0.00 0.02 0.02 87 1011.2
20260507181130 57 221 0.9 1.7 0.00 0.02 0.02 87 1011.3
20260507180626 57 207 2.6 4.3 0.00 0.02 0.02 88 1011.1
20260507180124 56 235 0.9 0.9 0.00 0.02 0.02 88 1011.1
20260507175619 56 166 2.6 2.6 0.00 0.02 0.02 86 1011.6
20260507175117 56 196 0.0 0.9 0.00 0.02 0.02 87 1011.4
20260507174614 57 257 0.0 0.0 0.00 0.02 0.02 85 1011.6
20260507174112 56 294 0.0 0.0 0.00 0.02 0.02 86 1011.3
20260507173609 56 247 0.9 1.7 0.00 0.02 0.02 85 1011.5
20260507173106 56 262 0.9 0.9 0.00 0.02 0.02 86 1011.5
20260507172602 55 240 0.9 1.7 0.00 0.02 0.02 86 1011.4
20260507172059 55 207 0.0 0.9 0.00 0.02 0.02 87 1011.7
20260507171554 55 289 0.0 0.9 0.00 0.02 0.02 88 1011.8
20260507171052 55 60 1.7 2.6 0.00 0.02 0.02 88 1011.6
20260507170548 55 275 0.0 0.0 0.00 0.02 0.02 89 1011.9
20260507170045 55 349 1.7 1.7 0.00 0.02 0.02 89 1012.1
20260507165541 55 333 3.5 4.3 0.00 0.02 0.02 89 1012.1
20260507165038 56 327 1.7 1.7 0.00 0.02 0.02 88 1012.0
20260507164534 56 322 0.0 0.0 0.00 0.02 0.02 89 1012.1
20260507164031 56 47 0.9 1.7 0.07 0.02 0.02 88 1012.0
20260507163528 55 276 0.9 0.9 0.12 0.02 0.02 88 1012.4
20260507163026 55 334 1.7 1.7 0.05 0.01 0.01 87 1012.3
20260507162520 55 269 0.9 0.9 0.00 0.00 0.00 86 1012.4
20260507162018 55 333 1.7 1.7 0.00 0.00 0.00 86 1012.4
20260507161514 55 322 3.5 4.3 0.00 0.00 0.00 85 1012.5
20260507161011 55 299 0.9 0.9 0.00 0.00 0.00 85 1012.4
20260507160507 55 309 1.7 1.7 0.00 0.00 0.00 85 1012.4
20260507160003 55 269 0.0 0.9 0.00 0.00 0.00 86 1012.3
20260507155459 55 321 4.3 5.2 0.00 0.00 0.00 84 1012.5
20260507154956 55 326 3.5 4.3 0.00 0.00 0.00 85 1012.7
20260507154453 55 279 0.9 0.9 0.00 0.00 0.00 86 1012.7
20260507153949 55 275 0.9 0.9 0.00 0.00 0.00 85 1012.7
20260507153447 55 315 2.6 2.6 0.00 0.00 0.00 85 1012.7
20260507152943 55 269 0.9 0.9 0.00 0.00 0.00 84 1012.7
20260507152439 55 333 3.5 4.3 0.00 0.00 0.00 84 1012.5
20260507151935 55 354 5.2 6.1 0.00 0.00 0.00 84 1012.6
20260507151431 55 40 0.0 0.9 0.00 0.00 0.00 85 1012.6
20260507150929 55 12 2.6 2.6 0.00 0.00 0.00 84 1012.3
20260507150426 55 17 1.7 2.6 0.00 0.00 0.00 84 1012.6
20260507145922 55 326 0.9 0.9 0.00 0.00 0.00 83 1012.4
20260507145418 55 284 0.9 1.7 0.00 0.00 0.00 84 1012.1
20260507144915 55 4 2.6 4.3 0.00 0.00 0.00 84 1012.7
20260507144412 56 328 0.9 0.9 0.00 0.00 0.00 84 1012.8
20260507143908 56 23 1.7 1.7 0.00 0.00 0.00 83 1012.6
20260507143406 56 55 2.6 2.6 0.00 0.00 0.00 83 1012.9
20260507142902 56 353 2.6 5.2 0.00 0.00 0.00 82 1012.4
20260507142358 56 325 2.6 4.3 0.00 0.00 0.00 82 1012.5
20260507141856 56 235 0.0 0.0 0.00 0.00 0.00 82 1012.6
20260507141352 56 333 0.9 0.9 0.00 0.00 0.00 81 1012.3
20260507140848 56 314 0.9 1.7 0.00 0.00 0.00 81 1012.5
20260507140345 57 69 1.7 4.3 0.00 0.00 0.00 80 1012.7
20260507135843 57 26 2.6 5.2 0.00 0.00 0.00 80 1012.7
20260507135340 57 4 3.5 6.1 0.00 0.00 0.00 80 1012.8
20260507134837 57 317 0.9 0.9 0.00 0.00 0.00 82 1012.7
20260507134333 57 324 5.2 6.1 0.00 0.00 0.00 81 1012.9
20260507133829 57 20 2.6 2.6 0.00 0.00 0.00 81 1012.8
20260507133325 57 293 0.9 2.6 0.00 0.00 0.00 82 1012.9
20260507132824 57 278 0.9 1.7 0.00 0.00 0.00 82 1012.7
20260507132319 57 328 3.5 4.3 0.00 0.00 0.00 82 1012.9
20260507131817 57 61 1.7 4.3 0.00 0.00 0.00 82 1012.7
20260507131313 57 45 3.5 5.2 0.00 0.00 0.00 83 1012.6
20260507130810 57 329 1.7 4.3 0.00 0.00 0.00 84 1012.9
20260507130308 57 32 1.7 1.7 0.00 0.00 0.00 84 1012.8
20260507125807 57 321 0.9 0.9 0.00 0.00 0.00 84 1012.1
20260507125306 57 344 2.6 4.3 0.00 0.00 0.00 84 1012.8
20260507124800 57 277 0.0 0.9 0.00 0.00 0.00 84 1012.4
20260507124257 57 224 0.0 0.0 0.00 0.00 0.00 85 1012.5
20260507123755 57 45 0.9 0.9 0.00 0.00 0.00 85 1012.6
20260507123253 57 273 0.9 0.9 0.00 0.00 0.00 85 1012.6
20260507122748 57 52 1.7 1.7 0.00 0.00 0.00 84 1012.6
20260507122244 57 48 2.6 4.3 0.00 0.00 0.00 84 1012.4
20260507121740 57 345 1.7 2.6 0.00 0.00 0.00 84 1012.3
20260507121236 57 135 0.9 1.7 0.00 0.00 0.00 84 1011.9
20260507120732 58 52 1.7 1.7 0.00 0.00 0.00 85 1012.5
20260507120229 58 346 2.6 2.6 0.00 0.00 0.00 86 1012.5
20260507115725 59 46 3.5 5.2 0.00 0.00 0.00 85 1012.4
20260507115221 59 252 2.6 4.3 0.00 0.00 0.00 85 1012.4
20260507114717 59 352 2.6 4.3 0.00 0.00 0.00 85 1012.3
20260507114215 59 8 2.6 4.3 0.00 0.00 0.00 84 1011.8
20260507113712 60 257 1.7 2.6 0.00 0.00 0.00 85 1012.0
20260507113209 60 331 0.9 1.7 0.00 0.00 0.00 84 1012.1
20260507112706 60 270 0.0 0.0 0.00 0.00 0.00 84 1012.0
20260507112203 60 332 2.6 2.6 0.00 0.00 0.00 84 1011.9
20260507111700 60 342 3.5 4.3 0.00 0.00 0.00 84 1011.9
20260507111157 60 299 0.9 1.7 0.00 0.00 0.00 86 1011.9
20260507110653 60 283 0.0 0.9 0.00 0.00 0.00 85 1011.8
20260507110150 60 248 0.0 0.9 0.00 0.00 0.00 85 1011.6
20260507105647 60 271 0.0 0.0 0.00 0.00 0.00 84 1011.4
20260507105142 60 354 0.9 0.9 0.00 0.00 0.00 84 1011.5
20260507104640 60 298 0.9 1.7 0.00 0.00 0.00 84 1011.4
20260507104136 60 270 0.0 0.0 0.00 0.00 0.00 84 1011.3
20260507103633 60 264 0.0 0.0 0.00 0.00 0.00 84 1011.2
20260507103130 60 301 0.9 0.9 0.00 0.00 0.00 84 1011.3
20260507102626 60 302 0.0 0.0 0.00 0.00 0.00 84 1010.9
20260507102122 60 281 0.0 0.9 0.00 0.00 0.00 83 1011.1
20260507101618 61 299 1.7 1.7 0.00 0.00 0.00 80 1011.0
20260507101114 61 281 0.9 1.7 0.00 0.00 0.00 80 1011.3
20260507100611 61 286 0.0 0.9 0.00 0.00 0.00 79 1011.2
20260507100110 62 304 2.6 2.6 0.00 0.00 0.00 78 1011.6
20260507095607 62 269 0.9 2.6 0.00 0.00 0.00 80 1011.3
20260507095104 62 297 2.6 4.3 0.00 0.00 0.00 76 1011.0
20260507094600 62 296 1.7 1.7 0.00 0.00 0.00 75 1011.1
20260507094057 62 347 1.7 1.7 0.00 0.00 0.00 75 1011.1
20260507093554 62 269 0.9 0.9 0.00 0.00 0.00 80 1011.7
20260507093053 62 267 0.0 0.0 0.00 0.00 0.00 80 1011.5
20260507092549 62 6 0.9 1.7 0.00 0.00 0.00 79 1011.3
20260507092046 61 296 0.0 0.9 0.00 0.00 0.00 80 1011.1
20260507091543 61 264 0.0 0.0 0.00 0.00 0.00 85 1010.7
20260507091039 61 60 1.7 1.7 0.00 0.00 0.00 85 1010.7
20260507090534 61 182 0.0 0.9 0.00 0.00 0.00 86 1010.8
20260507090032 61 315 0.9 0.9 0.00 0.00 0.00 85 1011.0
20260507085529 61 225 0.0 0.9 0.00 0.00 0.00 87 1011.1
20260507085025 61 301 0.0 0.9 0.00 0.00 0.00 87 1011.4
20260507084522 61 325 2.6 2.6 0.00 0.00 0.00 86 1011.2
20260507084019 61 306 1.7 1.7 0.00 0.00 0.00 85 1011.4
20260507083515 61 308 1.7 1.7 0.00 0.00 0.00 85 1011.4
20260507083013 61 282 0.0 0.0 0.00 0.00 0.00 86 1011.5
20260507082508 61 266 0.0 0.0 0.00 0.00 0.00 86 1011.2
20260507082004 61 262 0.0 0.0 0.00 0.00 0.00 86 1011.2
20260507081501 61 215 0.0 0.0 0.00 0.00 0.00 86 1011.0
20260507080958 61 240 0.0 0.0 0.00 0.00 0.00 86 1011.3
20260507080454 61 263 0.0 0.0 0.00 0.00 0.00 86 1011.2
20260507075949 62 274 0.0 0.0 0.00 0.00 0.00 86 1011.4
20260507075446 62 151 1.7 1.7 0.00 0.00 0.00 85 1011.1
20260507074943 62 279 0.9 0.9 0.00 0.00 0.00 85 1011.3
20260507074439 62 185 0.9 0.9 0.00 0.00 0.00 85 1011.1
20260507073937 62 103 0.9 0.9 0.00 0.00 0.00 86 1011.1
20260507073434 62 257 0.9 0.9 0.00 0.00 0.00 85 1011.0
20260507072930 62 52 0.9 0.9 0.00 0.00 0.00 85 1010.9
20260507072428 62 17 1.7 1.7 0.00 0.00 0.00 84 1011.0
20260507071926 62 324 0.9 0.9 0.00 0.00 0.00 83 1011.0
20260507071422 62 297 0.9 0.9 0.00 0.00 0.00 83 1011.0
20260507070919 63 294 1.7 1.7 0.00 0.00 0.00 82 1011.4
20260507070416 63 287 0.0 0.0 0.00 0.00 0.00 81 1011.1
20260507065913 63 269 0.0 0.0 0.00 0.00 0.00 81 1010.9
20260507065410 64 270 2.6 2.6 0.00 0.00 0.00 79 1011.0
20260507064907 64 308 1.7 1.7 0.00 0.00 0.00 79 1010.8
20260507064405 64 267 0.0 0.0 0.00 0.00 0.00 80 1010.6
20260507063902 64 277 0.9 1.7 0.00 0.00 0.00 81 1010.7
20260507063359 64 269 0.0 0.0 0.00 0.00 0.00 81 1010.9
20260507062856 64 291 0.9 0.9 0.00 0.00 0.00 81 1011.0
20260507062353 64 322 2.6 2.6 0.00 0.00 0.00 81 1011.0
20260507061851 64 318 2.6 2.6 0.00 0.00 0.00 81 1011.2
20260507061348 64 283 1.7 1.7 0.00 0.00 0.00 83 1011.2
20260507060847 64 47 2.6 2.6 0.00 0.00 0.00 84 1010.8
20260507060343 64 281 0.9 0.9 0.00 0.00 0.00 85 1011.3
20260507055840 64 298 2.6 4.3 0.00 0.00 0.00 85 1011.3
20260507055335 64 273 0.0 0.0 0.00 0.00 0.00 88 1011.4
20260507054832 63 282 4.3 6.1 0.00 0.00 0.00 90 1011.4
20260507054328 64 289 0.9 0.9 0.00 0.00 0.00 93 1011.5
20260507053826 64 279 0.0 0.9 0.00 0.00 0.00 93 1011.6
20260507053323 64 260 1.7 1.7 0.00 0.00 0.00 93 1011.5
20260507052822 64 290 0.9 1.7 0.00 0.00 0.00 93 1011.3
20260507052318 64 297 3.5 4.3 0.00 0.00 0.00 93 1011.2
20260507051816 64 273 2.6 4.3 0.00 0.00 0.00 93 1011.2
20260507051313 64 306 4.3 6.1 0.00 0.00 0.00 94 1011.1
20260507050810 64 283 1.7 1.7 0.00 0.00 0.00 94 1010.9
20260507050306 64 305 3.5 4.3 0.00 0.00 0.00 93 1010.6
20260507045803 64 302 1.7 1.7 0.00 0.00 0.00 93 1010.2
20260507045259 64 277 0.0 0.0 0.00 0.00 0.00 93 1010.0
20260507044757 64 217 0.9 1.7 0.00 0.00 0.00 93 1010.1
20260507044253 64 228 0.9 0.9 0.00 0.00 0.00 93 1009.9
20260507043749 64 251 0.9 0.9 0.00 0.00 0.00 92 1010.3
20260507043246 64 261 0.0 0.0 0.00 0.00 0.00 92 1010.4
20260507042742 64 293 0.9 0.9 0.00 0.00 0.00 92 1010.3
20260507042237 65 25 0.9 0.9 0.00 0.00 0.00 92 1010.3
20260507041736 65 253 0.0 0.0 0.00 0.00 0.00 91 1010.3
20260507041232 65 260 0.9 0.9 0.00 0.00 0.00 91 1010.7
20260507040729 65 256 0.9 0.9 0.00 0.00 0.00 91 1010.8
20260507040225 65 205 0.9 0.9 0.00 0.11 0.11 90 1011.1
20260507035721 65 214 1.7 1.7 0.00 0.11 0.11 90 1010.9
20260507035217 65 266 0.9 0.9 0.00 0.11 0.11 89 1011.1
20260507034714 65 245 2.6 2.6 0.00 0.11 0.11 89 1011.1
20260507034211 66 239 1.7 2.6 0.00 0.11 0.11 89 1011.3